Bloomington, IN

2:41 PM EDT on September 26, 2017 (GMT -0400)
Monroe County

Weather History for KBMG - July, 2013

Change the Weather History Date:

Thursday, July 11, 2013

  Actual Average Record
Temperature  
Mean Temperature 70 °F 74 °F  
Max Temperature 81 °F 84 °F 95 °F (2012)
Min Temperature 59 °F 64 °F 55 °F (2014)
Degree Days  
Heating Degree Days 0 0  
Month to date heating degree days 0 0  
Since 1 June heating degree days 7 15  
Since 1 July heating degree days 0 0  
Cooling Degree Days 5 9  
Month to date cooling degree days 84 99  
Year to date cooling degree days 427 389  
Since 1 June cooling degree days 308 307  
Growing Degree Days 22 (Base 50)    
Moisture  
Dew Point 60 °F    
Average Humidity 68    
Maximum Humidity 93    
Minimum Humidity 42    
Precipitation  
Precipitation 0.00 in 0.19 in 0.96 in (2000)
Month to date precipitation 0.79 1.81  
Year to date precipitation 25.37 26.59  
Sea Level Pressure  
Sea Level Pressure 29.99 in    
Wind  
Wind Speed 8 mph (NNE)    
Max Wind Speed 17 mph    
Max Gust Speed 22 mph    
Visibility 10 miles    
Events      
T = Trace of Precipitation, MM = Missing Value Source: NWS Daily Summary

Daily Weather History Graph

Daily Weather History Graph

Search for Another Location

Airport or City:

Trip Planner

Search our weather history database for the weather conditions in past years. The results will help you decide how hot, cold, wet, or windy it might be!

Date:

Astronomy

Jul. 11, 2013 Rise Set
Actual Time 6:30 AM EDT 9:13 PM EDT
Civil Twilight 5:58 AM EDT 9:45 PM EDT
Nautical Twilight 5:19 AM EDT 10:24 PM EDT
Astronomical Twilight 4:34 AM EDT 11:09 PM EDT
Moon 9:46 AM EDT (7/11) 10:55 PM EDT (7/11)
Length of Visible Light 15h 46m
Length of Day
14h 43m
Waxing Crescent, 10% of the Moon is Illuminated
Jul 11
Waxing Crescent
Jul 15
First Quarter
Jul 22
Full
Jul 29
Last Quarter
Aug 6
New

Hourly Weather History & Observations

Time (EDT) Temp. Heat Index Dew Point Humidity Pressure Visibility Wind Dir Wind Speed Gust Speed Precip Events Conditions
12:41 AM 73.4 °F - 71.6 °F 94% 29.97 in 10.0 mi North 9.2 mph - N/A   Overcast
12:53 AM 73.0 °F - 71.1 °F 93% 29.94 in 10.0 mi North 6.9 mph - N/A   Mostly Cloudy
1:02 AM 73.4 °F - 69.8 °F 88% 29.96 in 10.0 mi NNE 4.6 mph - N/A   Scattered Clouds
1:53 AM 71.1 °F - 69.1 °F 93% 29.95 in 10.0 mi North 3.5 mph - N/A   Clear
2:53 AM 69.1 °F - 66.9 °F 93% 29.95 in 10.0 mi North 5.8 mph - N/A   Clear
3:53 AM 66.9 °F - 64.0 °F 90% 29.95 in 10.0 mi NNE 5.8 mph - N/A   Clear
4:53 AM 64.9 °F - 62.1 °F 90% 29.96 in 10.0 mi North 5.8 mph - N/A   Clear
5:53 AM 64.0 °F - 61.0 °F 90% 29.97 in 10.0 mi North 6.9 mph - N/A   Partly Cloudy
6:53 AM 63.0 °F - 59.0 °F 87% 29.99 in 10.0 mi North 5.8 mph - N/A   Partly Cloudy
7:53 AM 64.9 °F - 59.0 °F 81% 29.99 in 10.0 mi North 10.4 mph - N/A   Clear
8:53 AM 69.1 °F - 57.9 °F 68% 30.00 in 10.0 mi NNE 9.2 mph - N/A   Clear
9:53 AM 72.0 °F - 59.0 °F 64% 30.01 in 10.0 mi NNE 8.1 mph - N/A   Partly Cloudy
10:53 AM 75.0 °F - 59.0 °F 57% 30.01 in 10.0 mi NE 9.2 mph - N/A   Clear
11:53 AM 75.0 °F - 57.0 °F 53% 30.02 in 10.0 mi NE 12.7 mph - N/A   Clear
12:53 PM 75.9 °F - 57.0 °F 52% 30.03 in 10.0 mi ENE 11.5 mph - N/A   Scattered Clouds
1:53 PM 79.0 °F - 57.0 °F 47% 30.02 in 10.0 mi NE 11.5 mph 17.3 mph N/A   Scattered Clouds
2:53 PM 79.0 °F - 57.9 °F 48% 30.01 in 10.0 mi North 10.4 mph - N/A   Scattered Clouds
3:53 PM 80.1 °F 80.2 °F 55.9 °F 43% 30.01 in 10.0 mi NE 6.9 mph - N/A   Scattered Clouds
4:53 PM 80.1 °F 80.4 °F 57.0 °F 45% 30.01 in 10.0 mi NNE 16.1 mph 21.9 mph N/A   Partly Cloudy
5:53 PM 79.0 °F - 55.9 °F 45% 30.01 in 10.0 mi North 10.4 mph 18.4 mph N/A   Partly Cloudy
6:53 PM 78.1 °F - 55.9 °F 46% 30.01 in 10.0 mi North 11.5 mph - N/A   Partly Cloudy
7:53 PM 75.0 °F - 57.0 °F 53% 30.01 in 10.0 mi North 9.2 mph 16.1 mph N/A   Clear
8:53 PM 70.0 °F - 57.9 °F 65% 30.00 in 10.0 mi North 5.8 mph - N/A   Clear
9:53 PM 66.9 °F - 57.9 °F 73% 30.01 in 10.0 mi North 3.5 mph - N/A   Clear
10:53 PM 64.0 °F - 57.9 °F 80% 30.02 in 10.0 mi North 4.6 mph - N/A   Clear
11:53 PM 62.1 °F - 57.9 °F 86% 30.03 in 10.0 mi Calm Calm - N/A   Clear